This demonstration page uses our WeatherBlox Daily Observations layout. Learn more.

Left ArrowRight Arrow

39.01783, -85.05884

Hourly Observations for November 13, 2020

Temp ( °F °C ) Dew Point ( °F °C ) Humidity (%) Winds ( mph kmh ) Pressure ( in mb ) Visibility ( mi km ) Precip ( " mm )
12:52 am 00:52 Mostly Clear 43 6.1 32 0 65 65 SSE 5 7 30 1016 10 16.0934 0 0
1:52 am 01:52 Mostly Cloudy 41 5 33 0.6 73 73 W 3 6 30.03 1017 10 16.0934 0 0
2:52 am 02:52 Mostly Cloudy 40 4.4 34 1.1 79 79 Calm 30.03 1017 10 16.0934 0 0
3:52 am 03:52 Cloudy 39 3.9 34 1.1 82 82 S 3 6 30.02 1017 10 16.0934 0 0
4:52 am 04:52 Cloudy 40 4.4 34 1.1 79 79 SW 5 7 30.04 1017 10 16.0934 0 0
5:52 am 05:52 Mostly Cloudy 40 4.4 34 1.1 79 79 SSW 5 7 30.05 1018 10 16.0934 0 0
6:52 am 06:52 Mostly Clear 39 3.9 34 1.1 82 82 WSW 3 6 30.06 1018 10 16.0934 0 0
7:52 am 07:52 Mostly Sunny 35 1.7 33 0.6 93 93 SSW 3 6 30.08 1019 8 12.87472 0 0
8:52 am 08:52 Mostly Sunny 44 6.7 37 2.8 76 76 Calm 30.09 1019 10 16.0934 0 0
9:52 am 09:52 Sunny 50 10 35 1.7 57 57 NW 9 15 30.12 1020 10 16.0934 0 0
10:52 am 10:52 Sunny 53 11.7 36 2.2 52 52 NW 9 15 30.13 1020 10 16.0934 0 0
11:52 am 11:52 Sunny 55 12.8 35 1.7 47 47 Calm 30.13 1020 10 16.0934 0 0
12:52 pm 12:52 Mostly Sunny 57 13.9 35 1.7 44 44 W 14 22 30.12 1020 10 16.0934 0 0
1:52 pm 13:52 Mostly Sunny 58 14.4 33 0.6 39 39 NW 9 15 30.11 1020 10 16.0934 0 0
2:52 pm 14:52 Partly Cloudy 57 13.9 33 0.6 41 41 NW 14 22 30.13 1020 10 16.0934 0 0
3:52 pm 15:52 Partly Cloudy 55 12.8 31 -0.6 40 40 WNW 14 22 30.15 1021 10 16.0934 0 0
4:52 pm 16:52 Mostly Sunny 51 10.6 28 -2.2 41 41 WNW 9 15 30.16 1021 10 16.0934 0 0
5:52 pm 17:52 Mostly Clear 46 7.8 25 -3.9 44 44 NW 8 13 30.16 1022 10 16.0934 0 0
6:52 pm 18:52 Clear 43 6.1 27 -2.8 53 53 NW 8 13 30.18 1022 10 16.0934 0 0
7:52 pm 19:52 Clear 41 5 26 -3.3 55 55 NW 9 15 30.19 1023 10 16.0934 0 0
8:52 pm 20:52 Clear 41 5 24 -4.4 51 51 NW 6 9 30.19 1022 10 16.0934 0 0
9:52 pm 21:52 Mostly Clear 39 3.9 24 -4.4 55 55 N 7 11 30.19 1022 10 16.0934 0 0
10:52 pm 22:52 Clear 37 2.8 26 -3.3 65 65 N 6 9 30.19 1022 10 16.0934 0 0
11:52 pm 23:52 Mostly Clear 38 3.3 27 -2.8 65 65 NNE 6 9 30.18 1022 10 16.0934 0 0

Powered by AerisWeather